CST,Max TemperatureF,Mean TemperatureF,Min TemperatureF,Max Dew PointF,MeanDew PointF,Min DewpointF,Max Humidity, Mean Humidity, Min Humidity, Max Sea Level PressureIn, Mean Sea Level PressureIn, Min Sea Level PressureIn, Max VisibilityMiles, Mean VisibilityMiles, Min VisibilityMiles, Max Wind SpeedMPH, Mean Wind SpeedMPH, Max Gust SpeedMPH,PrecipitationIn, CloudCover, Events, WindDirDegrees
2013-1-1,19,3,-11,18,3,-17,100,84,77,30.21,29.99,29.80,10,8,2,15,10,,0.00,3,Snow,196
2013-1-2,30,18,5,27,11,0,100,83,73,30.27,29.98,29.76,10,8,3,28,14,34,0.00,5,Rain-Snow,327
2013-1-3,26,14,1,18,10,0,93,77,64,30.27,30.05,29.85,10,10,7,18,10,28,0.00,2,Snow,235
2013-1-4,28,16,5,19,13,1,100,79,64,30.11,30.03,29.89,10,9,0,14,9,,0.00,0,Fog,326
2013-1-5,15,8,1,14,6,0,93,87,73,30.11,30.04,29.97,10,8,0,21,8,29,0.00,4,Fog-Snow,331
2013-1-6,21,16,10,18,14,9,100,90,79,30.16,30.00,29.67,10,9,4,25,9,33,0.00,7,Snow,178
2013-1-7,32,23,10,25,20,9,93,80,69,29.85,29.72,29.59,10,10,10,32,15,38,0.00,1,,253
2013-1-8,32,19,6,30,18,3,93,86,69,29.82,29.68,29.57,10,9,1,30,13,39,0.00,2,Rain-Snow,199
2013-1-9,30,24,19,25,17,12,93,78,68,30.16,30.01,29.67,10,10,6,34,21,43,0.00,2,,253
2013-1-10,39,31,23,32,27,18,100,83,65,29.96,29.71,29.58,10,9,1,23,15,29,0.00,2,Rain,171
2013-1-11,32,19,6,32,13,5,100,93,85,29.60,29.58,29.55,4,2,0,25,10,32,0.00,8,Rain-Snow,359
2013-1-12,6,0,-5,5,-5,-11,92,81,66,30.18,29.95,29.58,10,4,0,,,,0.00,5,Rain-Snow,-1
2013-1-13,5,-3,-11,0,-7,-17,85,78,71,30.22,30.17,30.12,10,9,3,16,7,20,0.00,4,Rain-Snow,306
2013-1-14,5,-1,-7,-2,-6,-11,92,80,71,30.29,30.23,30.14,10,10,9,9,7,,0.00,2,,224
2013-1-15,35,18,0,32,7,-4,93,85,73,30.13,29.84,29.46,10,9,2,21,11,25,0.00,4,Rain-Snow,185
2013-1-16,32,14,-4,28,-2,-17,93,73,55,30.32,29.99,29.50,10,9,3,29,20,39,0.00,3,Rain-Snow,353
2013-1-17,6,2,-2,3,-4,-9,92,78,66,30.42,30.32,30.10,10,9,3,16,8,,0.00,4,Snow,170
2013-1-18,14,10,6,10,9,5,92,87,79,30.08,29.83,29.71,10,7,0,17,10,20,0.00,7,Snow,81
2013-1-19,15,4,-7,14,-2,-13,93,80,65,30.37,30.03,29.63,10,7,1,32,13,44,0.00,4,Rain-Snow,319
2013-1-20,-2,-8,-13,-9,-15,-22,78,69,59,30.41,30.36,30.33,10,9,2,25,12,31,0.00,3,Snow,297
2013-1-21,-7,-12,-16,-18,-21,-26,77,68,59,30.36,30.31,30.29,10,10,10,20,11,22,0.00,0,,295
2013-1-22,1,-10,-20,-4,-14,-26,85,74,61,30.33,30.25,30.15,10,10,10,10,6,,0.00,0,,232
2013-1-23,0,-8,-16,-4,-16,-24,85,70,59,30.69,30.45,30.14,10,9,5,25,13,32,0.00,2,,341
2013-1-24,6,-5,-16,3,-12,-24,92,74,64,30.68,30.34,29.90,10,7,0,30,12,36,0.00,4,Rain-Snow,157
2013-1-25,12,2,-9,7,-7,-15,85,76,66,30.32,30.16,29.84,10,7,1,28,15,37,0.00,5,Rain-Snow,327
2013-1-26,14,4,-7,9,-1,-13,79,75,67,30.30,30.11,30.01,10,10,9,21,13,25,0.00,4,,168
2013-1-27,19,12,5,14,7,1,92,82,73,30.02,29.90,29.80,10,9,7,10,5,,0.00,1,,70
2013-1-28,24,19,14,19,16,10,100,87,79,29.82,29.79,29.74,8,6,2,10,5,,0.00,5,,279
2013-1-29,21,14,8,19,14,3,100,87,73,30.00,29.83,29.70,10,6,3,23,11,32,0.00,7,Rain-Snow,341
2013-1-30,8,2,-4,5,-1,-11,85,78,71,29.99,29.93,29.88,10,5,1,22,17,31,0.00,8,Rain-Snow,339
2013-1-31,-4,-10,-18,-11,-18,-26,84,69,59,30.30,30.19,29.98,10,7,1,29,20,36,0.00,5,Rain-Snow,319